Weather History for Taba International, Egypt

Change the Weather History Date:

Tuesday, August 27, 2013

  Actual Average Record
Temperature  
Mean Temperature 78 °F -  
Max Temperature 91 °F - - ()
Min Temperature 66 °F - - ()
Cooling Degree Days 14    
Growing Degree Days 28 (Base 50)    
Moisture  
Dew Point 57 °F    
Average Humidity 57    
Maximum Humidity 94    
Minimum Humidity 21    
Precipitation  
Precipitation 0.00 in - - ()
Sea Level Pressure  
Sea Level Pressure 29.87 in    
Wind  
Wind Speed 12 mph ()    
Max Wind Speed 18 mph    
Max Gust Speed -    
T = Trace of Precipitation, MM = Missing Value Source: Averaged Metar Reports

Daily Weather History Graph

Daily Weather History Graph

Search for Another Location

Airport:

Trip Planner

Search our weather history database for the weather conditions in past years. The results will help you decide how hot, cold, wet, or windy it might be!

Date:

Astronomy

Aug. 27, 2013 Rise Set
Actual Time 5:15 AM EET 6:08 PM EET
Civil Twilight 4:51 AM EET 6:33 PM EET
Nautical Twilight 4:22 AM EET 7:02 PM EET
Astronomical Twilight 3:52 AM EET 7:31 PM EET
Moon 10:20 PM EET (8/27) 11:21 AM EET (8/27)
Length of Visible Light 13h 42m
Length of Day
12h 53m
Waning Gibbous, 60% of the Moon is Illuminated
Aug 27
Waning Gibbous
Aug 28
Last Quarter
Sep 5
New
Sep 12
First Quarter
Sep 19
Full

Hourly Weather History & Observations

Time (EET) Temp. Dew Point Humidity Pressure Visibility Wind Dir Wind Speed Gust Speed Precip Events Conditions
12:00 AM 69.8 °F 64.4 °F 83% 29.89 in - WNW 18.4 mph - N/A   Clear
1:00 AM 68.0 °F 64.4 °F 88% 29.89 in - WNW 15.0 mph - N/A   Clear
2:00 AM 68.0 °F 64.4 °F 88% 29.89 in - WNW 11.5 mph - N/A   Clear
3:00 AM 68.0 °F 66.2 °F 94% 29.89 in - WNW 12.7 mph - N/A   Clear
4:00 AM 66.2 °F 64.4 °F 94% 29.89 in - WNW 11.5 mph - N/A   Clear
5:00 AM 66.2 °F 64.4 °F 94% 29.89 in - WNW 9.2 mph - N/A   Clear
6:00 AM 66.2 °F 64.4 °F 94% 29.89 in - WNW 9.2 mph - N/A   Clear
7:00 AM 68.0 °F 60.8 °F 78% 29.92 in - WNW 11.5 mph - N/A   Clear
8:00 AM 71.6 °F 60.8 °F 69% 29.92 in - NW 11.5 mph - N/A   Clear
9:00 AM 77.0 °F 57.2 °F 50% 29.89 in - NNW 10.4 mph - N/A   Clear
10:00 AM 80.6 °F 51.8 °F 37% 29.89 in - NNW 13.8 mph - N/A   Clear
11:00 AM 82.4 °F 51.8 °F 35% 29.89 in - North 12.7 mph - N/A   Clear
12:00 PM 84.2 °F 51.8 °F 33% 29.86 in - NNW 11.5 mph - N/A   Clear
1:00 PM 87.8 °F 48.2 °F 25% 29.86 in - North 15.0 mph - N/A   Clear
2:00 PM 89.6 °F 46.4 °F 22% 29.83 in - NNW 15.0 mph - N/A   Clear
3:00 PM 89.6 °F 48.2 °F 24% 29.83 in - NW 17.3 mph - N/A   Clear
4:00 PM 91.4 °F 46.4 °F 21% 29.80 in - NNW 16.1 mph - N/A   Clear
5:00 PM 89.6 °F 48.2 °F 24% 29.80 in - NNW 18.4 mph - N/A   Clear
6:00 PM 87.8 °F 50.0 °F 27% 29.83 in - NNW 13.8 mph - N/A   Clear
8:00 PM 78.8 °F 59.0 °F 51% 29.86 in - WNW 18.4 mph - N/A   Clear
9:00 PM 75.2 °F 59.0 °F 57% 29.89 in - WNW 17.3 mph - N/A   Clear
10:00 PM 73.4 °F 59.0 °F 61% 29.89 in - WNW 15.0 mph - N/A   Clear
11:00 PM 71.6 °F 59.0 °F 64% 29.89 in - WNW 10.4 mph - N/A   Clear